#timestamp,LO_Frequency,Hit,StdDev 
1552107615.1,286046999.3,N
1552107616.0,286046999.3,N
1552107635.8,286046998.3,N
1552107655.7,286047000.9,N
1552107675.5,286047000.1,N
1552107695.3,286047000.3,N
1552107715.2,286046996.5,N
1552107735.0,286046996.8,N
1552107735.9,286046996.8,N
1552107755.8,286046998.3,N
1552107775.6,286047000.1,N
1552107795.4,286047000.4,N
1552107815.3,286047002.6,N
1552107835.1,286047002.4,N
1552107855.8,286047000.5,N
1552107875.7,286046999.8,N
1552107895.5,286046999.2,N
1552107915.4,286046998.4,N
1552107935.2,286047000.7,N
1552107955.0,286047000.6,N
1552107955.9,286047000.6,N
1552107975.8,286047000.9,N
1552107995.6,286047001.2,N
1552108015.4,286047001.2,N
1552108035.3,286046998.2,N
1552108055.1,286046998.6,N
1552108075.9,286046999.0,N
1552108095.7,286046998.1,N
1552108115.5,286046998.7,N
1552108135.4,286046997.4,N
1552108155.2,286046996.9,N
1552108175.1,286047000.7,N
1552108176.0,286047000.7,N
1552108195.8,286046999.1,N
1552108215.6,286047000.8,N
1552108235.5,286046998.5,N
1552108255.3,286046999.9,N
1552108275.1,286046998.3,N
1552108295.9,286047001.9,N
1552108315.7,286047000.9,N
1552108335.6,286047000.3,N
1552108355.4,286047000.5,N
1552108375.2,286046998.5,N
1552108395.1,286047002.4,N
1552108396.0,286047002.4,N
1552108415.8,286046998.8,N
1552108435.7,286046999.1,N
1552108455.5,286046999.6,N
1552108475.3,286046999.3,N
1552108495.2,286046998.1,N
1552108515.9,286046998.7,N
1552108535.7,286046998.6,N
1552108555.6,286047000.0,N
1552108575.4,286046999.1,N
1552108595.2,286046997.1,N
1552108615.1,286046998.7,N
1552108616.0,286046998.7,N
1552108635.8,286046999.3,N
1552108655.7,286046997.1,N
1552108675.5,286046997.9,N
1552108695.3,286046998.8,N
1552108715.2,286046998.8,N
1552108735.0,286046996.6,N
1552108735.9,286046996.6,N
1552108755.8,286046996.8,N
1552108775.6,286046999.2,N
1552108795.4,286046999.2,N
1552108815.3,286046999.7,N
1552108835.1,286047002.4,N
1552108855.9,286047000.3,N
1552108875.7,286047003.6,N
1552108895.5,286047001.8,N
1552108915.4,286047001.7,N
1552108935.2,286047004.2,N
1552108955.0,286047002.4,N
1552108955.9,286047002.4,N
1552108975.8,286047001.9,N
1552108995.6,286047001.0,N
1552109015.5,286047002.6,N
1552109035.3,286047011.9,Y
1552109055.1,286047003.7,P
1552109075.9,286047002.1,N
1552109095.7,286047001.3,N
1552109115.6,286047004.2,N
1552109135.4,286047003.8,N
1552109155.2,286047001.6,N
1552109175.1,286047000.4,N
1552109176.0,286047000.4,N
1552109195.8,286047002.7,N
1552109215.6,286047000.5,N
1552109235.5,286047001.0,N
1552109255.3,286047000.9,N
1552109275.2,286046998.1,N
1552109295.9,286047001.0,N
1552109315.7,286047000.1,N
1552109335.6,286047000.3,N
1552109355.4,286047000.9,N
1552109375.2,286047000.9,N
1552109395.1,286046999.8,N
1552109396.0,286046999.8,N
1552109415.8,286047002.8,N
1552109435.7,286047003.4,N
1552109455.5,286047001.7,N
1552109475.3,286047002.8,N
1552109495.2,286047002.8,N
1552109515.0,286047000.5,N
1552109515.9,286047000.5,N
1552109535.7,286047000.1,N
1552109555.6,286047002.6,N
1552109575.4,286047000.2,N
1552109595.3,286046999.8,N
1552109615.1,286047000.0,N
1552109616.0,286047000.0,N
1552109635.8,286046999.8,N
1552109655.7,286047000.8,N
1552109675.5,286046999.0,N
1552109695.3,286046998.5,N
1552109715.2,286046998.1,N
1552109735.0,286046998.3,N
1552109735.9,286046998.3,N
1552109755.8,286046999.6,N
1552109775.6,286046997.0,N
1552109795.4,286046996.6,N
1552109815.3,286046998.9,N
1552109835.1,286047000.3,N
1552109855.9,286047000.3,N
1552109875.7,286046998.2,N
1552109895.5,286047002.3,N
1552109915.4,286047002.6,N
1552109935.2,286047000.4,N
1552109955.0,286046999.5,N
1552109955.9,286046999.5,N
1552109975.8,286046997.2,N
1552109995.6,286046996.9,N
1552110015.5,286046998.7,N
1552110035.3,286046999.7,N
1552110055.1,286047001.6,N
1552110075.9,286047002.3,N
1552110095.7,286047004.3,N
1552110115.5,286047000.0,N
1552110135.4,286046999.5,N
1552110155.2,286046999.5,N
1552110175.1,286046998.7,N
1552110176.0,286046998.7,N
1552110195.8,286047000.9,N
1552110215.6,286047002.7,N
1552110235.5,286047001.8,N
1552110255.3,286046999.9,N
1552110275.1,286047000.4,N
1552110295.9,286047001.6,N
1552110315.7,286047004.0,N
1552110335.6,286047005.2,N
1552110355.4,286047005.9,N
1552110375.2,286047003.9,N
1552110395.1,286047002.1,N
1552110396.0,286047002.1,N
1552110415.8,286047000.1,N
1552110435.6,286047002.6,N
1552110455.5,286047003.4,N
1552110475.3,286047002.5,N
1552110495.2,286047002.2,N
1552110515.9,286047000.0,N
1552110535.7,286046999.3,N
1552110555.6,286047000.0,N
1552110575.4,286047000.0,N
1552110595.3,286046998.6,N
1552110615.1,286047000.6,N
1552110616.0,286047000.6,N
1552110635.8,286047000.7,N
1552110655.7,286047000.1,N
1552110675.5,286046999.8,N
1552110695.3,286047002.4,N
1552110715.2,286047003.4,N
1552110735.0,286047005.7,Y
1552110735.9,286047005.7,P
1552110755.8,286047002.2,N
1552110775.6,286047002.0,N
1552110795.4,286047004.3,N
1552110815.3,286047001.4,N
1552110835.1,286047001.7,N
1552110855.8,286047001.7,N
1552110875.7,286047002.4,N
1552110895.5,286047001.6,N
1552110915.4,286047002.8,N
1552110935.2,286047001.8,N
1552110955.0,286047001.9,N
1552110955.9,286047001.9,N
1552110975.8,286047000.1,N
1552110995.6,286047002.5,N
1552111015.5,286047001.3,N
1552111035.3,286047001.8,N
1552111055.1,286047002.2,N
1552111075.9,286047002.6,N
1552111095.7,286047002.3,N
1552111115.6,286046999.7,N
1552111135.4,286046999.7,N
1552111155.2,286047002.6,N
1552111175.1,286047002.3,N
1552111176.0,286047002.3,N
1552111195.8,286047002.4,N
